Location: Burland Observatory
(39.4088°N, 105.4217°W)
Time: 20:54:25
(UTC-07:00)

SR - Pass Details

Date: 11 December 2019
Orbit: 574 x 882 km, 66.7° (Epoch: 19 January)

Event Time Altitude Azimuth Distance (km) Brightness Sun altitude
Rises 17:26:58 0° 336° (NNW) 3,479 ? -9.3°
Reaches altitude 10° 17:29:40 10° 344° (NNW) 2,523 ? -9.8°
Maximum altitude 17:35:12 41° 54° (NE) 1,198 ? -10.8°
Drops below altitude 10° 17:40:25 10° 124° (SE) 2,380 ? -11.7°
Sets 17:42:53 0° 131° (SE) 3,262 ? -12.2°
